Aussat K3

operational
NORAD ID: 18350 Int'l Des: 1987-078 Owner: AUSS Country: AU
HEOCIRCULAR

关于 Aussat K3

正在加载描述...

实时位置

正在加载3D地球...

即将过境

高度历史

Altitude vs Time

uPlot chart will show altitude changes over time

两行轨道根数

1 18350U 87078A 26063.04836490 .00000026 00000-0 00000+0 0 9995
2 18350 14.4148 351.9896 0006600 358.2745 67.5433 0.98904476 45002
Epoch: Mar 4, 2026 • Age: 13 hours

当前状态

高度 36191.6 km
速度 3.06 km/s
星下点 -11.80°S, 124.66°W
发射日期 Sep 16, 1987
运行时间 38.4 years
类型 other

技术详情

分类 Payload
质量 653.00 kg
干质量 500.00 kg
总质量 1196.00 kg
长度 6.60 m
直径 2.20 m
跨度 6.60 m
形状 Cyl
制造商 HSES
平台类型 HS-376
阶段状态 Unknown Active Status
所有者/国家 AUSS/AU

大型星座

Loading constellations...